Location: Unspecified
(0.0000°N, 0.0000°E)
Time: 16:41:09
(UTC+00:00)

Explorer 7 - All Passes

Search period start: 12 April 2021 00:00
Search period end: 22 April 2021 00:00
Orbit: 484 x 677 km, 50.3° (Epoch: 11 April)

Date Brightness Start Highest point End Pass type
(mag) Time Alt. Az. Time Alt. Az. Time Alt. Az.
12 Apr - 07:47:29 10° NW 07:52:20 85° NE 07:57:01 10° SE daylight
12 Apr - 19:50:18 10° SW 19:54:03 64° NW 19:57:57 10° NNE visible
13 Apr - 06:13:49 10° NNE 06:16:15 14° NE 06:18:40 10° E daylight
13 Apr - 07:52:06 10° NW 07:56:45 47° SW 08:01:15 10° SSE daylight
13 Apr - 18:16:25 10° SSE 18:18:15 13° SE 18:20:06 10° E daylight
13 Apr - 19:55:13 10° WSW 19:58:30 27° NW 20:01:52 10° N visible
14 Apr - 06:16:41 10° N 06:20:45 26° NE 06:24:44 10° ESE daylight
14 Apr - 07:57:15 10° WNW 08:01:10 24° SW 08:04:57 10° S daylight
14 Apr - 18:19:25 10° S 18:22:41 28° SE 18:26:01 10° ENE visible
14 Apr - 20:01:10 10° W 20:02:59 13° NW 20:04:50 10° NNW visible
15 Apr - 06:20:28 10° NNW 06:25:12 50° NE 06:29:49 10° SE daylight
15 Apr - 08:03:32 10° WSW 08:05:36 13° SW 08:07:39 10° SSW daylight
15 Apr - 18:23:22 10° SSW 18:27:06 66° SE 18:30:54 10° NE visible
16 Apr - 06:24:43 10° NW 06:29:37 81° SW 06:34:23 10° SSE daylight
16 Apr - 18:27:52 10° SW 18:31:30 49° NW 18:35:14 10° NNE visible
17 Apr - 04:50:31 10° NNE 04:53:34 16° NE 04:56:35 10° E visible
17 Apr - 06:29:27 10° WNW 06:34:01 40° SW 06:38:30 10° SSE daylight
17 Apr - 16:53:23 10° SSE 16:55:42 16° SE 16:58:02 10° E daylight
17 Apr - 18:32:59 10° WSW 18:35:57 22° NW 18:38:58 10° N visible
18 Apr - 04:53:43 10° N 04:58:02 31° NE 05:02:18 10° ESE visible
18 Apr - 06:34:47 10° WNW 06:38:26 21° SW 06:42:03 10° S daylight
18 Apr - 16:56:42 10° SSW 17:00:08 34° SE 17:03:35 10° ENE daylight
18 Apr - 18:40:00 10° WNW 18:40:25 10° NW 18:40:52 10° NW visible
19 Apr - 04:57:37 10° NNW 05:02:27 61° NE 05:07:14 10° SE visible
19 Apr - 06:41:42 10° WSW 06:42:54 11° SW 06:44:06 10° SW daylight
19 Apr - 17:00:49 10° SW 17:04:32 84° SE 17:08:19 10° NE daylight
20 Apr - 05:02:00 10° NW 05:06:51 68° SW 05:11:40 10° SSE visible
20 Apr - 17:05:27 10° WSW 17:08:57 39° NW 17:12:30 10° NNE daylight
21 Apr - 03:27:22 10° N 03:30:50 19° NE 03:34:18 10° E visible
21 Apr - 05:06:50 10° WNW 05:11:16 34° SW 05:15:40 10° SSE visible
21 Apr - 15:30:25 10° S 15:33:09 19° SE 15:35:52 10° E daylight
21 Apr - 17:10:48 10° W 17:13:23 18° NW 17:16:00 10° N daylight
